User: anonymous   Login
Location: Unspecified
(0.0000°N, 0.0000°E)
Time: 00:42:13
(UTC+00:00)
Language:

TIGRISAT - Orbit

View from above orbital plane
View from above orbital plane
View from above satellite
View from above satellite

Ground track
Ground track

The orbit data is extracted from the following two-line orbital elements,

1 40043U 14033AK  17206.39462250 +.00000096 +00000-0 +21912-4 0  9993
2 40043 097.8522 089.7803 0060366 169.9554 190.2877 14.73991275166466
Epoch (UTC): 25 July 2017 09:28:15
Eccentricity: 0.0060366
inclination: 97.8522°
perigee height: 606 km
apogee height: 691 km
right ascension of ascending node: 89.7803°
argument of perigee: 169.9554°
revolutions per day: 14.73991275
mean anomaly at epoch: 190.2877°
orbit number at epoch: 16646

The dashed part of the orbit path shows where the satellite is in the earth's shadow,  

DLR